Regional Weather Roundup
Issued by NWS

Home | Current Version | Previous Version | Text Only | Print | Product List | Glossary Off
Versions: 1 2 3 4 5 6 7 8 9 10 11 12 13 14 15 16 17 18 19 20 21 22 23 24 25 26 27 28

000
ASUS45 KCYS 100910
RWRWY

WYOMING REGIONAL WEATHER ROUNDUP
NATIONAL WEATHER SERVICE CHEYENNE WY
200 AM MST SAT DEC 10 2016

NOTE:  "FAIR" INDICATES FEW OR NO CLOUDS BELOW 12,000 FEET
WITH NO SIGNIFICANT WEATHER AND/OR OBSTRUCTIONS TO VISIBILITY.

WYZ001-101000-
YELLOWSTONE NATIONAL PARK

CITY           SKY/WX    TMP DP  RH WIND       PRES   REMARKS
LK YELLOWSTONE   N/A     26  24  92 VRB5      29.85F WCI  20
W YELLOWSTONE  NOT AVBL

$$
WYZ002>013-054>058-071-098>099-101000-
NORTHERN WYOMING

CITY           SKY/WX    TMP DP  RH WIND       PRES   REMARKS
JACKSON        CLOUDY    30  30 100 W9        29.88F WCI  22
CODY           FAIR       7   2  80 S5        29.89F WCI  -2
GREYBULL       MOCLDY     8   3  80 CALM      29.96F
WORLAND        FAIR       6   2  83 SE7       29.92F WCI  -6
SHERIDAN       FAIR       7   2  80 NW6       29.96S WCI  -3
BUFFALO        FAIR       9   0  67 S10       29.88F WCI  -5
GILLETTE       FAIR       4   0  83 S20G26    29.94F WCI -17
HULETT         CLOUDY     3   0  85 CALM      29.99F
NEWCASTLE      FLURRIES   5   1  85 SE3       30.05F

$$
WYZ014>020-022>026-101>103-101000-
CENTRAL WYOMING

CITY           SKY/WX    TMP DP  RH WIND       PRES   REMARKS
BIG PINEY      FAIR      16  14  92 CALM      29.97F
PINEDALE       FLURRIES  27  27 100 SE6       29.97F WCI  20
DUBOIS         CLOUDY    32  23  69 W17G23    29.82F WCI  21
LANDER         FAIR      14   7  73 NW6       29.86F WCI   5
RIVERTON       FAIR      10   5  80 CALM      29.88F
CASPER         FAIR      34  26  72 SW21      29.88F WCI  22
DOUGLAS        FAIR       8   3  80 NE7       29.95S WCI  -3

$$
WYZ021-027>030-104>119-101000-
SOUTHERN WYOMING

CITY           SKY/WX    TMP DP  RH WIND       PRES   REMARKS
EVANSTON       CLOUDY    36  21  54 SW7       30.03R WCI  30
KEMMERER         N/A     32  27  80 SW13      29.99F WCI  22
FORT BRIDGER   PTSUNNY   34  25  69 W12       30.03R WCI  25
ROCK SPRINGS   CLOUDY    32  23  69 W9        30.00F WCI  24
DIXON          CLOUDY    33  24  69 W8        30.10S WCI  26
RAWLINS        CLOUDY    35  22  58 SW16G25   29.98F WCI  25
SARATOGA       CLOUDY    34  23  64 CALM      30.03F
LARAMIE        CLOUDY    34  22  61 S8          N/A  WCI  27
CHEYENNE       CLOUDY    26  20  77 S8        29.98F WCI  18
TORRINGTON     FAIR      14   8  77 E12       29.99F WCI   0
PINE BLUFFS    CLOUDY    23  19  86 S8        30.01F WCI  14

$$




USA.gov is the U.S. government's official web portal to all federal, state and local government web resources and services.